Weather History for KISW - October, 2013

Change the Weather History Date:

Tuesday, October 15, 2013

  Actual Average Record
Temperature  
Mean Temperature 52 °F -  
Max Temperature 57 °F 57 °F 83 °F (1968)
Min Temperature 46 °F 36 °F 21 °F (2006)
Degree Days  
Heating Degree Days 14    
Growing Degree Days 2 (Base 50)    
Moisture  
Dew Point 48 °F    
Average Humidity 90    
Maximum Humidity 100    
Minimum Humidity 72    
Precipitation  
Precipitation 1.06 in - - ()
Sea Level Pressure  
Sea Level Pressure 29.85 in    
Wind  
Wind Speed 8 mph (SSE)    
Max Wind Speed 14 mph    
Max Gust Speed 21 mph    
Visibility 6 miles    
Events Rain    
Averages and records for this station are not official NWS values.
T = Trace of Precipitation, MM = Missing Value Source: NWS Daily Summary

Daily Weather History Graph

Daily Weather History Graph

Search for Another Location

Airport or City:

Trip Planner

Search our weather history database for the weather conditions in past years. The results will help you decide how hot, cold, wet, or windy it might be!

Date:

Astronomy

Oct. 15, 2013 Rise Set
Actual Time 7:14 AM CDT 6:14 PM CDT
Civil Twilight 6:45 AM CDT 6:43 PM CDT
Nautical Twilight 6:11 AM CDT 7:17 PM CDT
Astronomical Twilight 5:38 AM CDT 7:51 PM CDT
Moon 4:25 PM CDT (10/15) 3:29 AM CDT (10/15)
Length of Visible Light 11h 58m
Length of Day
11h 00m
Waxing Gibbous, 88% of the Moon is Illuminated
Oct 15
Waxing Gibbous
Oct 18
Full
Oct 26
Last Quarter
Nov 3
New
Nov 9
First Quarter

Hourly Weather History & Observations

Time (CDT) Temp. Dew Point Humidity Pressure Visibility Wind Dir Wind Speed Gust Speed Precip Events Conditions
12:54 AM 46.9 °F 42.1 °F 83% 30.13 in 10.0 mi East 9.2 mph - N/A   Clear
1:54 AM 48.0 °F 43.0 °F 83% 30.09 in 10.0 mi ESE 9.2 mph - N/A   Scattered Clouds
2:54 AM 48.9 °F 43.0 °F 80% 30.05 in 10.0 mi ESE 9.2 mph - N/A   Scattered Clouds
3:54 AM 50.0 °F 44.1 °F 80% 30.03 in 10.0 mi ESE 8.1 mph - 0.00 in Rain Light Rain
4:54 AM 48.9 °F 46.0 °F 90% 30.03 in 5.0 mi ENE 3.5 mph - 0.04 in Rain Rain
5:41 AM 48.2 °F 46.4 °F 93% 29.98 in 5.0 mi SE 6.9 mph - 0.09 in Rain Rain
5:54 AM 48.9 °F 46.9 °F 93% 29.96 in 4.0 mi East 10.4 mph - 0.13 in Rain Heavy Rain
6:10 AM 48.2 °F 46.4 °F 93% 29.94 in 4.0 mi ESE 10.4 mph 18.4 mph 0.07 in Rain Rain
6:54 AM 50.0 °F 48.0 °F 93% 29.93 in 4.0 mi SE 12.7 mph - 0.18 in Rain Rain
7:06 AM 50.0 °F 48.2 °F 94% 29.91 in 2.0 mi ESE 10.4 mph 19.6 mph 0.05 in Rain Heavy Rain
7:18 AM 50.0 °F 48.2 °F 94% 29.90 in 2.5 mi ESE 9.2 mph 18.4 mph 0.11 in Rain Heavy Rain
7:38 AM 50.0 °F 48.2 °F 94% 29.89 in 2.5 mi SE 12.7 mph 20.7 mph 0.18 in Rain Heavy Rain
7:41 AM 50.0 °F 48.2 °F 94% 29.89 in 2.0 mi SE 13.8 mph 20.7 mph 0.19 in Rain Heavy Rain
7:43 AM 50.0 °F 48.2 °F 94% 29.89 in 1.8 mi SE 11.5 mph 20.7 mph 0.20 in Rain Heavy Rain
7:54 AM 50.0 °F 48.9 °F 96% 29.90 in 1.0 mi SE 9.2 mph - 0.26 in Rain Heavy Rain
8:08 AM 50.0 °F 48.2 °F 94% 29.88 in 1.5 mi SSE 8.1 mph - 0.06 in Rain Heavy Rain
8:20 AM 50.0 °F 48.2 °F 94% 29.88 in 2.5 mi SE 8.1 mph - 0.10 in Rain Rain
8:32 AM 50.0 °F 48.2 °F 94% 29.87 in 1.8 mi SE 8.1 mph - 0.16 in Rain Heavy Rain
8:43 AM 50.0 °F 48.2 °F 94% 29.87 in 2.5 mi SSE 9.2 mph - 0.21 in Rain Heavy Rain
8:54 AM 50.0 °F 48.9 °F 96% 29.87 in 1.8 mi SE 8.1 mph - 0.27 in Rain Heavy Rain
9:20 AM 51.8 °F 50.0 °F 94% 29.87 in 3.0 mi SSE 5.8 mph - 0.15 in Rain Rain
9:29 AM 51.8 °F 50.0 °F 94% 29.86 in 1.8 mi SSE 4.6 mph - 0.17 in Rain Rain
9:45 AM 51.8 °F 50.0 °F 94% 29.86 in 3.0 mi SSE 5.8 mph - 0.18 in Rain Light Rain
9:54 AM 51.1 °F 50.0 °F 96% 29.87 in 6.0 mi SSE 8.1 mph - 0.18 in   Overcast
10:54 AM 52.0 °F 51.1 °F 97% 29.84 in 7.0 mi South 11.5 mph 16.1 mph 0.00 in   Overcast
11:54 AM 53.1 °F 52.0 °F 96% 29.82 in 8.0 mi SSE 10.4 mph - N/A   Overcast
12:54 PM 54.0 °F 53.1 °F 97% 29.79 in 3.0 mi SSE 3.5 mph - N/A   Overcast
1:14 PM 53.6 °F 53.6 °F 100% 29.77 in 5.0 mi SSE 5.8 mph - N/A   Overcast
1:54 PM 55.0 °F 53.1 °F 93% 29.76 in 5.0 mi SSE 4.6 mph - N/A   Overcast
2:51 PM 55.4 °F 53.6 °F 94% 29.73 in 2.5 mi SSE 5.8 mph - N/A   Overcast
2:54 PM 55.0 °F 54.0 °F 96% 29.74 in 2.5 mi SSE 6.9 mph - N/A   Overcast
3:46 PM 55.4 °F 53.6 °F 94% 29.72 in 3.0 mi SE 4.6 mph - N/A   Overcast
3:54 PM 55.0 °F 54.0 °F 96% 29.73 in 3.0 mi SE 4.6 mph - N/A   Overcast
4:29 PM 55.4 °F 53.6 °F 94% 29.72 in 5.0 mi South 3.5 mph - N/A   Overcast
4:39 PM 55.4 °F 53.6 °F 94% 29.72 in 6.0 mi South 4.6 mph - N/A   Overcast
4:54 PM 57.0 °F 53.1 °F 87% 29.73 in 10.0 mi SSW 6.9 mph - N/A   Overcast
5:25 PM 55.4 °F 46.4 °F 72% 29.73 in 10.0 mi WSW 9.2 mph 18.4 mph N/A   Overcast
5:54 PM 53.1 °F 45.0 °F 74% 29.75 in 10.0 mi West 8.1 mph 18.4 mph N/A   Overcast
6:54 PM 52.0 °F 44.1 °F 74% 29.76 in 10.0 mi WSW 10.4 mph 19.6 mph N/A   Overcast
7:54 PM 51.1 °F 43.0 °F 74% 29.77 in 10.0 mi WSW 8.1 mph - N/A   Overcast
8:50 PM 50.0 °F 44.6 °F 82% 29.77 in 10.0 mi WSW 8.1 mph - 0.00 in   Overcast
8:54 PM 50.0 °F 44.1 °F 80% 29.78 in 10.0 mi WSW 6.9 mph - 0.00 in   Overcast
9:54 PM 48.9 °F 44.1 °F 83% 29.79 in 10.0 mi SW 5.8 mph - N/A   Overcast
10:54 PM 48.0 °F 43.0 °F 83% 29.78 in 10.0 mi WSW 8.1 mph - N/A   Overcast
11:26 PM 48.2 °F 42.8 °F 82% 29.76 in 10.0 mi WSW 5.8 mph - N/A   Overcast
11:54 PM 46.9 °F 44.1 °F 90% 29.77 in 10.0 mi WSW 4.6 mph - N/A   Overcast